Wichita Jabara, KS

7:14 PM CDT on June 23, 2017 (GMT -0500)
Col Jabara

Weather History for KAAO - October, 2013

Change the Weather History Date:

Tuesday, October 29, 2013

  Actual Average (KIAB) Record (KIAB)
Temperature  
Mean Temperature 64 °F -  
Max Temperature 71 °F 61 °F 82 °F (2016)
Min Temperature 57 °F 43 °F 33 °F (2011)
Degree Days  
Heating Degree Days 2    
Growing Degree Days 14 (Base 50)    
Moisture  
Dew Point 60 °F    
Average Humidity 94    
Maximum Humidity 100    
Minimum Humidity 77    
Precipitation  
Precipitation 1.01 in - - ()
Sea Level Pressure  
Sea Level Pressure 29.94 in    
Wind  
Wind Speed 11 mph (SSE)    
Max Wind Speed 39 mph    
Max Gust Speed 52 mph    
Visibility 8 miles    
Events Rain , Thunderstorm    
Averages and records for this station are not official NWS values.
T = Trace of Precipitation, MM = Missing Value Source: NWS Daily Summary

Daily Weather History Graph

Daily Weather History Graph

Search for Another Location

Airport or City:

Trip Planner

Search our weather history database for the weather conditions in past years. The results will help you decide how hot, cold, wet, or windy it might be!

Date:

Astronomy

Oct. 29, 2013 Rise Set
Actual Time 7:51 AM CDT 6:33 PM CDT
Civil Twilight 7:24 AM CDT 7:00 PM CDT
Nautical Twilight 6:53 AM CDT 7:31 PM CDT
Astronomical Twilight 6:22 AM CDT 8:01 PM CDT
Moon 2:48 AM CDT (10/29) 3:43 PM CDT (10/29)
Length of Visible Light 11h 35m
Length of Day
10h 41m
Waning Crescent, 25% of the Moon is Illuminated
Oct 29
Waning Crescent
Nov 3
New
Nov 9
First Quarter
Nov 17
Full
Nov 25
Last Quarter

Hourly Weather History & Observations

Time (CDT) Temp. Dew Point Humidity Pressure Visibility Wind Dir Wind Speed Gust Speed Precip Events Conditions
12:14 AM 60.8 °F 53.6 °F 77% 29.99 in 10.0 mi SE 13.8 mph - N/A   Overcast
12:44 AM 59.0 °F 55.4 °F 88% 29.99 in 5.0 mi SE 12.7 mph 20.7 mph 0.03 in Rain , Thunderstorm Rain
12:54 AM 59.0 °F 55.9 °F 90% 29.97 in 4.0 mi ESE 11.5 mph - 0.06 in Rain , Thunderstorm Heavy Rain
1:32 AM 57.2 °F 57.2 °F 100% 29.97 in 9.0 mi ESE 10.4 mph - 0.02 in   Overcast
1:54 AM 57.9 °F 57.0 °F 97% 29.96 in 9.0 mi ESE 11.5 mph - 0.02 in   Overcast
2:24 AM 59.0 °F 57.2 °F 94% 29.95 in 4.0 mi SE 12.7 mph 21.9 mph 0.03 in Rain , Thunderstorm Rain
2:54 AM 59.0 °F 59.0 °F 100% 29.92 in 3.0 mi SE 13.8 mph - 0.14 in Rain , Thunderstorm Heavy Thunderstorms and Rain
3:32 AM 60.8 °F 60.8 °F 100% 29.91 in 4.0 mi SE 11.5 mph 18.4 mph 0.05 in Thunderstorm Overcast
3:44 AM 60.8 °F 60.8 °F 100% 29.98 in 1.8 mi WNW 39.1 mph 51.8 mph 0.22 in Rain , Thunderstorm Light Rain
3:51 AM 57.2 °F 57.2 °F 100% 29.97 in 0.8 mi North 18.4 mph 51.8 mph 0.52 in Rain , Thunderstorm Heavy Thunderstorms and Rain
3:54 AM 57.9 °F 57.9 °F 100% 29.95 in 1.0 mi North 17.3 mph 31.1 mph 0.55 in Rain , Thunderstorm Heavy Thunderstorms and Rain
3:56 AM 57.2 °F 57.2 °F 100% 29.96 in 1.5 mi North 17.3 mph 31.1 mph 0.01 in Rain , Thunderstorm Heavy Thunderstorms and Rain
4:04 AM 57.2 °F 57.2 °F 100% 29.97 in 2.5 mi NNE 10.4 mph - 0.11 in Rain , Thunderstorm Heavy Thunderstorms and Rain
4:12 AM 57.2 °F 57.2 °F 100% 29.96 in 2.5 mi NNE 6.9 mph - 0.18 in Rain , Thunderstorm Heavy Thunderstorms and Rain
4:19 AM 59.0 °F - N/A% 29.96 in 4.0 mi ENE 8.1 mph - 0.20 in Rain , Thunderstorm Thunderstorms and Rain
4:48 AM 57.2 °F 57.2 °F 100% 29.95 in 10.0 mi ESE 5.8 mph - 0.22 in Rain Light Rain
4:54 AM 57.9 °F 57.9 °F 100% 29.95 in 10.0 mi ESE 6.9 mph - 0.22 in Rain Light Rain
5:21 AM 57.2 °F 57.2 °F 100% 29.94 in 10.0 mi SE 8.1 mph - 0.02 in Rain Light Rain
5:54 AM 57.9 °F 57.9 °F 100% 29.93 in 10.0 mi Calm Calm - 0.02 in   Overcast
6:40 AM 57.2 °F 57.2 °F 100% 29.95 in 10.0 mi East 4.6 mph - N/A   Overcast
6:50 AM 57.2 °F 57.2 °F 100% 29.95 in 10.0 mi SE 5.8 mph - N/A   Overcast
6:54 AM 57.9 °F 57.9 °F 100% 29.94 in 10.0 mi SE 6.9 mph - N/A   Overcast
7:11 AM 57.2 °F 57.2 °F 100% 29.96 in 10.0 mi SE 5.8 mph - N/A   Overcast
7:51 AM 59.0 °F 59.0 °F 100% 29.95 in 10.0 mi SE 6.9 mph - N/A   Overcast
7:54 AM 59.0 °F 59.0 °F 100% 29.94 in 10.0 mi SE 6.9 mph - N/A   Overcast
8:20 AM 60.8 °F 60.8 °F 100% 29.95 in 7.0 mi SSE 8.1 mph - N/A   Overcast
8:40 AM 60.8 °F 60.8 °F 100% 29.96 in 10.0 mi SSE 6.9 mph - N/A   Overcast
8:54 AM 61.0 °F 61.0 °F 100% 29.95 in 10.0 mi SSE 6.9 mph - N/A   Overcast
9:43 AM 60.8 °F 60.8 °F 100% 29.97 in 9.0 mi ESE 5.8 mph - 0.00 in   Overcast
9:54 AM 61.0 °F 61.0 °F 100% 29.96 in 7.0 mi SE 4.6 mph - 0.00 in   Overcast
10:12 AM 62.6 °F 62.6 °F 100% 29.97 in 6.0 mi ESE 6.9 mph - N/A   Overcast
10:50 AM 62.6 °F 62.6 °F 100% 29.97 in 2.5 mi SE 5.8 mph - N/A   Overcast
10:54 AM 63.0 °F 63.0 °F 100% 29.95 in 2.5 mi SE 6.9 mph - N/A   Overcast
11:23 AM 64.4 °F 62.6 °F 94% 29.96 in 3.0 mi SSE 8.1 mph - N/A   Overcast
11:54 AM 64.9 °F 64.0 °F 97% 29.95 in 5.0 mi South 9.2 mph - N/A   Overcast
12:08 PM 64.4 °F 64.4 °F 100% 29.96 in 5.0 mi South 10.4 mph - N/A   Overcast
12:46 PM 66.2 °F 64.4 °F 94% 29.95 in 8.0 mi South 9.2 mph - N/A   Overcast
12:54 PM 66.9 °F 64.9 °F 93% 29.93 in 8.0 mi South 9.2 mph - N/A   Overcast
1:54 PM 69.1 °F 66.0 °F 90% 29.91 in 10.0 mi SSW 11.5 mph - N/A   Mostly Cloudy
2:21 PM 69.8 °F 64.4 °F 83% 29.92 in 10.0 mi SSW 12.7 mph - N/A   Overcast
2:39 PM 69.8 °F 64.4 °F 83% 29.91 in 10.0 mi SSW 11.5 mph - N/A   Overcast
2:52 PM 69.8 °F 64.4 °F 83% 29.91 in 10.0 mi South 10.4 mph - N/A   Overcast
2:54 PM 70.0 °F 66.0 °F 87% 29.89 in 10.0 mi SSW 10.4 mph - N/A   Overcast
3:54 PM 70.0 °F 64.9 °F 84% 29.88 in 10.0 mi South 10.4 mph - N/A   Overcast
4:20 PM 69.8 °F 64.4 °F 83% 29.91 in 10.0 mi SSW 9.2 mph - N/A   Overcast
4:32 PM 69.8 °F 64.4 °F 83% 29.91 in 10.0 mi SSW 11.5 mph - N/A   Overcast
4:42 PM 69.8 °F 64.4 °F 83% 29.90 in 10.0 mi SSW 11.5 mph - N/A   Overcast
4:54 PM 70.0 °F 64.9 °F 84% 29.89 in 10.0 mi SSW 8.1 mph 18.4 mph N/A   Overcast
5:34 PM 69.8 °F 64.4 °F 83% 29.91 in 10.0 mi SW 8.1 mph - N/A   Overcast
5:54 PM 69.1 °F 64.0 °F 84% 29.90 in 10.0 mi SW 13.8 mph - N/A   Overcast
6:54 PM 66.9 °F 63.0 °F 87% 29.90 in 10.0 mi WSW 4.6 mph - N/A   Overcast
7:54 PM 64.0 °F 61.0 °F 90% 29.93 in 9.0 mi WNW 6.9 mph - N/A   Overcast
8:54 PM 61.0 °F 57.9 °F 90% 29.95 in 8.0 mi NW 4.6 mph - N/A   Overcast
9:54 PM 60.1 °F 57.9 °F 93% 29.96 in 8.0 mi NW 8.1 mph - N/A   Overcast
10:54 PM 60.1 °F 57.0 °F 90% 29.96 in 9.0 mi NNW 4.6 mph - N/A   Overcast
11:08 PM 60.8 °F 57.2 °F 88% 29.98 in 9.0 mi North 4.6 mph - N/A   Overcast
11:54 PM 60.1 °F 57.0 °F 90% 29.96 in 8.0 mi North 3.5 mph - N/A   Overcast